<?xml version="1.0"?>
<gpx xmlns="http://www.topografix.com/GPX/1/1" xmlns:xsi="http://www.w3.org/2001/XMLSchema-instance" version="1.1" creator="GPX RubyGem 1.0.0 -- http://dougfales.github.io/gpx/" xsi:schemaLocation="http://www.topografix.com/GPX/1/1 http://www.topografix.com/GPX/1/1/gpx.xsd">
  <metadata>
    <name/>
    <time>2026-05-10T12:14:40+00:00</time>
    <bound minlat="90.0" minlon="180.0" maxlat="-90.0" maxlon="-180.0"/>
  </metadata>
  <trk>
    <name/>
    <trkseg>
      <trkpt lat="52.049677" lon="8.453055">
        <time>1970-01-01T00:00:00+00:00</time>
        <ele>125.0</ele>
      </trkpt>
      <trkpt lat="52.049655" lon="8.453135">
        <time>1970-01-01T00:00:00+00:00</time>
        <ele>125.0</ele>
      </trkpt>
      <trkpt lat="52.04991" lon="8.453319">
        <time>1970-01-01T00:00:00+00:00</time>
        <ele>122.0</ele>
      </trkpt>
      <trkpt lat="52.050057" lon="8.453429">
        <time>1970-01-01T00:00:00+00:00</time>
        <ele>122.0</ele>
      </trkpt>
      <trkpt lat="52.0501" lon="8.453437">
        <time>1970-01-01T00:00:00+00:00</time>
        <ele>122.0</ele>
      </trkpt>
      <trkpt lat="52.050151" lon="8.45342">
        <time>1970-01-01T00:00:00+00:00</time>
        <ele>122.0</ele>
      </trkpt>
      <trkpt lat="52.050457" lon="8.453309">
        <time>1970-01-01T00:00:00+00:00</time>
        <ele>125.0</ele>
      </trkpt>
      <trkpt lat="52.050613" lon="8.45293">
        <time>1970-01-01T00:00:00+00:00</time>
        <ele>136.0</ele>
      </trkpt>
      <trkpt lat="52.050601" lon="8.452874">
        <time>1970-01-01T00:00:00+00:00</time>
        <ele>137.0</ele>
      </trkpt>
      <trkpt lat="52.050657" lon="8.452665">
        <time>1970-01-01T00:00:00+00:00</time>
        <ele>143.0</ele>
      </trkpt>
      <trkpt lat="52.05116" lon="8.452712">
        <time>1970-01-01T00:00:00+00:00</time>
        <ele>159.0</ele>
      </trkpt>
      <trkpt lat="52.0514" lon="8.452942">
        <time>1970-01-01T00:00:00+00:00</time>
        <ele>160.0</ele>
      </trkpt>
      <trkpt lat="52.05155" lon="8.452918">
        <time>1970-01-01T00:00:00+00:00</time>
        <ele>159.0</ele>
      </trkpt>
      <trkpt lat="52.05178" lon="8.452334">
        <time>1970-01-01T00:00:00+00:00</time>
        <ele>163.0</ele>
      </trkpt>
      <trkpt lat="52.051881" lon="8.451945">
        <time>1970-01-01T00:00:00+00:00</time>
        <ele>161.0</ele>
      </trkpt>
      <trkpt lat="52.051999" lon="8.451689">
        <time>1970-01-01T00:00:00+00:00</time>
        <ele>161.0</ele>
      </trkpt>
      <trkpt lat="52.051999" lon="8.451689">
        <time>1970-01-01T00:00:00+00:00</time>
        <ele>161.0</ele>
      </trkpt>
      <trkpt lat="52.051881" lon="8.451945">
        <time>1970-01-01T00:00:00+00:00</time>
        <ele>161.0</ele>
      </trkpt>
      <trkpt lat="52.05178" lon="8.452334">
        <time>1970-01-01T00:00:00+00:00</time>
        <ele>163.0</ele>
      </trkpt>
      <trkpt lat="52.05155" lon="8.452918">
        <time>1970-01-01T00:00:00+00:00</time>
        <ele>159.0</ele>
      </trkpt>
      <trkpt lat="52.0514" lon="8.452942">
        <time>1970-01-01T00:00:00+00:00</time>
        <ele>160.0</ele>
      </trkpt>
      <trkpt lat="52.05116" lon="8.452712">
        <time>1970-01-01T00:00:00+00:00</time>
        <ele>159.0</ele>
      </trkpt>
      <trkpt lat="52.050657" lon="8.452665">
        <time>1970-01-01T00:00:00+00:00</time>
        <ele>143.0</ele>
      </trkpt>
      <trkpt lat="52.050601" lon="8.452874">
        <time>1970-01-01T00:00:00+00:00</time>
        <ele>137.0</ele>
      </trkpt>
      <trkpt lat="52.050613" lon="8.45293">
        <time>1970-01-01T00:00:00+00:00</time>
        <ele>136.0</ele>
      </trkpt>
      <trkpt lat="52.050457" lon="8.453309">
        <time>1970-01-01T00:00:00+00:00</time>
        <ele>125.0</ele>
      </trkpt>
      <trkpt lat="52.050151" lon="8.45342">
        <time>1970-01-01T00:00:00+00:00</time>
        <ele>122.0</ele>
      </trkpt>
      <trkpt lat="52.0501" lon="8.453437">
        <time>1970-01-01T00:00:00+00:00</time>
        <ele>122.0</ele>
      </trkpt>
      <trkpt lat="52.050057" lon="8.453429">
        <time>1970-01-01T00:00:00+00:00</time>
        <ele>122.0</ele>
      </trkpt>
      <trkpt lat="52.04991" lon="8.453319">
        <time>1970-01-01T00:00:00+00:00</time>
        <ele>122.0</ele>
      </trkpt>
      <trkpt lat="52.049655" lon="8.453135">
        <time>1970-01-01T00:00:00+00:00</time>
        <ele>125.0</ele>
      </trkpt>
      <trkpt lat="52.049677" lon="8.453055">
        <time>1970-01-01T00:00:00+00:00</time>
        <ele>125.0</ele>
      </trkpt>
    </trkseg>
  </trk>
</gpx>
